DateTime,Index
2001090118,0.0
2001090200,0.0
2001090206,1600.0
2001090212,2025.0
2001090218,2025.0
2001090300,2025.0
2001090306,2500.0
2001090312,2500.0
2001090318,1600.0
2001090400,1600.0
2001090406,2025.0
2001090412,2025.0
2001090418,2025.0
2001090500,2025.0
2001090506,2025.0
2001090512,1225.0
2001090518,0.0
2001090600,0.0
2001090606,0.0
2001090612,0.0
2001090618,0.0
2001090700,0.0
2001090706,0.0
2001090712,0.0
2001090718,1225.0
2001090800,1225.0
2001090806,1600.0
2001090812,2025.0
2001090818,3600.0
2001090900,5625.0
2001090906,8100.0
2001090912,9025.0
2001090918,11025.0
2001091000,11025.0
2001091006,11025.0
2001091012,10000.0
2001091018,8100.0
2001091100,6400.0
2001091106,6400.0
2001091112,6400.0
2001091118,6400.0
2001091200,6400.0
2001091206,5625.0
2001091212,5625.0
2001091218,5625.0
2001091300,5625.0
2001091306,4900.0
2001091312,4900.0
2001091318,4900.0
2001091400,4900.0
2001091406,4225.0
2001091412,4225.0
2001091418,4225.0
2001091500,3600.0
2001091506,3600.0
2001091512,3025.0
2001091518,3025.0
2001091600,3025.0
2001091606,3025.0
2001091612,3025.0
2001091618,2500.0
2001091700,1600.0
